Regional Weather Roundup
Issued by NWS New Orleans/Baton Rouge, LA

Home | Current Version | Previous Version | Text Only | Print | Product List | Glossary On
Versions: 1 2 3 4 5 6 7 8 9 10 11 12 13 14 15 16 17 18 19 20 21 22 23 24 25 26 27 28
000
ASUS44 KLIX 291611
RWRLIX
NEW ORLEANS REGIONAL WEATHER ROUNDUP
NATIONAL WEATHER SERVICE NEW ORLEANS LA
1100 AM CDT FRI JUL 29 2016

NOTE: "FAIR" INDICATES FEW OR NO CLOUDS BELOW 12,000 FEET WITH NO
      SIGNIFICANT WEATHER AND/OR OBSTRUCTIONS TO VISIBILITY.
      SKY/WX - SKY CONDITION AND SIGNIFICANT WEATHER.
      TMP - AIR TEMPERATURE.     DP    - DEWPOINT TEMPERATURE.
      RH  - RELATIVE HUMIDITY.   PRES  - PRESSURE.
      HI  - HEAT INDEX.          WCI   - WIND CHILL INDEX.

*  THESE STATIONS ARE NOT NWS OR FAA STATIONS AND ARE NOT UNDER
   NWS QUALITY CONTROL.

LAZ038-040-048-061>063-065>067-069-291700-
SOUTHEAST LOUISIANA

CITY           SKY/WX    TMP DP  RH WIND       PRES   REMARKS
N.O. AUDUBON     N/A     93  78  62 MISG        N/A  HX 108
N.O. INTL ARPT PTSUNNY   92  77  61 VRB5      30.06R HX 105
N.O. LAKEFRONT SUNNY     88  77  69 N7        30.07R HX 100
N.O. DOWNTOWN*   N/A     87  73  62 CALM      30.07R
RESERVE*         N/A     90  76  63 S5        30.07R HX 102
SLIDELL        MOSUNNY   89  76  65 VRB6      30.06R HX 100
BATON ROUGE    PTSUNNY   87  75  67 W9        30.07R HX  96
BOOTHVILLE     MOSUNNY   86  76  71 VRB3      30.07R HX  96
BELLE CHASSE   PTSUNNY   88  76  67 SW5       30.06R HX  99
BOGALUSA*        N/A     89  73  59 W6        30.08S HX  96
GALLIANO*      MOSUNNY   90  76  63 W3        30.06R HX 101
NEW ROADS*       N/A     87  73  64 W3        30.08R
GONZALES*        N/A     87  76  69 SW5       30.06R HX  97
HAMMOND*       SUNNY     90  70  51 W6        30.07R HX  95
HOUMA*         NOT AVBL
PORT FOURCHON* PTSUNNY   88  75  66 VRB6      30.06S HX  97

$$

MSZ070-080>082-291700-
SOUTHERN MISSISSIPPI

CITY           SKY/WX    TMP DP  RH WIND       PRES   REMARKS
MCCOMB         CLOUDY    85  75  72 W5        30.08S
GULFPORT       MOSUNNY   88  75  65 W5        30.05S HX  97
BILOXI         MOSUNNY   89  76  67 VRB2      30.05S HX 100
PASCAGOULA     MOSUNNY   89  80  74 N5        30.06R HX 106
STENNIS ARPT*  MOSUNNY   88  72  58 MISG      30.06S

$$

COASTAL OBSERVATIONS
LAKE AND NEARSHORE STATIONS

STATION/POSITION TIME  TEMP    WIND        PRES    WAVE
                       AIR SEA DIR/SP/G            HT/PER
                 (UTC) (F)     (DEG/KT/KT) (MB)    (FT/S)
PASCAGOULA       1500   87     250/  5/  7 1017.3
WAVELAND YACHT   1500   85 86  320/  3/  6 1017.8
GRAND ISLE       1500   87 87  150/  4/  6 1017.9
SOUTHWEST PASS   1500          230/  3/  4   N/A
NEW CANAL        1500   84 86  350/  4/  6 1017.1
SHELL BEACH      1500   84 87  320/  3/  4 1017.8

OFFSHORE STATIONS

STATION/POSITION TIME  TEMP    WIND        PRES    WAVE
                       AIR SEA DIR/SP/G            HT/PER
                 (UTC) (F)     (DEG/KT/KT) (MB)    (FT/S)
64 S DAUPHIN ISL 1500   81 87  250/ 16/ 21 1017.5

$$





USA.gov is the U.S. government's official web portal to all federal, state and local government web resources and services.